Location: Unspecified
(0.0000°N, 0.0000°E)
Time: 08:38:18
(UTC+00:00)

Vanguard 2 Rocket - All Passes

Search period start: 28 August 2016 00:00
Search period end: 07 September 2016 00:00
Orbit: 556 x 3327 km, 32.9° (Epoch: 27 August)

Date Brightness Start Highest point End Pass type
(mag) Time Alt. Az. Time Alt. Az. Time Alt. Az.
28 Aug - 00:26:41 10° NW 00:47:24 85° NE 01:03:33 10° SE visible
28 Aug - 02:47:55 10° WNW 03:05:06 41° SW 03:16:46 10° SSE visible
28 Aug - 12:08:14 10° SW 12:11:59 42° SE 12:16:36 10° ENE daylight
28 Aug - 14:21:31 10° WNW 14:25:29 23° NNW 14:31:02 10° NNE daylight
28 Aug - 18:57:58 10° N 19:03:19 13° NNE 19:09:31 10° NE visible
28 Aug - 21:10:37 10° NNW 21:25:05 31° NNE 21:41:35 10° E visible
28 Aug - 23:25:27 10° NW 23:45:20 68° NE 00:03:04 10° ESE visible
29 Aug - 01:44:21 10° WNW 02:03:57 56° SW 02:17:56 10° SE visible
29 Aug - 04:11:29 10° WSW 04:21:18 18° SW 04:28:44 10° S visible
29 Aug - 11:10:19 10° SSW 11:13:12 19° SE 11:16:10 10° E daylight
29 Aug - 13:22:09 10° W 13:26:02 35° NNW 13:31:25 10° NE daylight
29 Aug - 20:11:18 10° NNW 20:22:39 22° NNE 20:36:27 10° ENE visible
29 Aug - 22:24:54 10° NW 22:43:05 53° NE 23:01:39 10° ESE visible
30 Aug - 00:41:49 10° WNW 01:02:21 74° SW 01:18:30 10° SE visible
30 Aug - 03:05:23 10° W 03:20:14 29° SW 03:30:58 10° SSE visible
30 Aug - 12:23:08 10° WSW 12:27:03 70° NW 12:31:55 10° NE daylight
30 Aug - 14:39:23 10° NW 14:41:26 12° NNW 14:43:47 10° N daylight
30 Aug - 19:12:44 10° N 19:20:21 16° NNE 19:29:36 10° NE visible
30 Aug - 21:24:58 10° NNW 21:40:51 41° NNE 21:59:04 10° E visible
30 Aug - 23:40:15 10° NW 00:00:22 88° NE 00:18:24 10° SE visible
31 Aug - 02:00:48 10° W 02:18:56 41° SW 02:32:21 10° SSE visible
31 Aug - 04:32:02 10° SW 04:37:20 12° SSW 04:41:52 10° S visible
31 Aug - 11:24:25 10° SW 11:28:18 49° SE 11:32:24 10° ENE daylight
31 Aug - 13:38:48 10° WNW 13:41:39 16° NNW 13:45:07 10° NNE daylight
31 Aug - 18:17:16 10° NNE 18:18:17 10° NNE 18:19:21 10° NNE visible
31 Aug - 20:25:39 10° NNW 20:38:44 30° NNE 20:55:02 10° E visible
31 Aug - 22:39:28 10° NW 22:58:14 71° NE 23:17:29 10° ESE visible
01 Sep - 00:57:33 10° WNW 01:17:17 56° SW 01:33:08 10° SE visible
01 Sep - 03:24:06 10° WSW 03:35:55 20° SSW 03:44:59 10° SSE visible
01 Sep - 10:25:56 10° SSW 10:29:26 23° SSE 10:32:37 10° E daylight
01 Sep - 12:38:55 10° W 12:42:19 27° NNW 12:46:22 10° NNE daylight
01 Sep - 19:26:59 10° NNW 19:36:49 21° NNE 19:49:23 10° ENE visible
01 Sep - 21:39:24 10° NW 21:56:07 55° NE 22:15:36 10° ESE visible
01 Sep - 23:55:27 10° WNW 00:15:19 72° SW 00:33:17 10° SE visible
02 Sep - 02:18:16 10° W 02:34:18 30° SSW 02:46:37 10° SSE visible
02 Sep - 09:27:49 10° S 09:30:09 13° SSE 09:32:14 10° SE daylight
02 Sep - 11:39:29 10° WSW 11:43:25 56° NW 11:47:32 10° NE daylight
02 Sep - 18:29:27 10° N 18:35:05 14° NNE 18:41:50 10° NE visible
02 Sep - 20:39:57 10° NNW 20:54:14 41° NE 21:12:33 10° E visible
02 Sep - 22:54:19 10° NW 23:13:11 90° SW 23:32:45 10° SE visible
03 Sep - 01:14:02 10° W 01:32:27 41° SW 01:47:33 10° SSE visible
03 Sep - 03:44:04 10° SW 03:52:13 15° SSW 03:58:55 10° S visible
03 Sep - 10:40:16 10° SW 10:44:40 61° SSE 10:48:33 10° ENE daylight
03 Sep - 12:56:31 10° NW 12:57:50 11° NNW 12:59:13 10° N daylight
03 Sep - 19:41:07 10° NNW 19:52:37 29° NE 20:08:06 10° E visible
03 Sep - 21:53:59 10° NW 22:11:07 73° NE 22:31:23 10° ESE visible
04 Sep - 00:11:13 10° WNW 00:30:22 55° SW 00:47:53 10° SE visible
04 Sep - 02:36:53 10° WSW 02:50:13 22° SSW 03:00:52 10° SSE visible
04 Sep - 09:41:08 10° SSW 09:45:44 30° SSE 09:49:19 10° E daylight
04 Sep - 11:55:31 10° W 11:58:36 21° NNW 12:01:46 10° NNE daylight
04 Sep - 18:43:02 10° N 18:51:16 19° NNE 19:02:04 10° ENE visible
04 Sep - 20:54:21 10° NW 21:09:18 56° NE 21:29:03 10° ESE visible
04 Sep - 23:09:34 10° WNW 23:28:10 70° SW 23:47:35 10° SE visible
05 Sep - 01:31:30 10° W 01:48:03 31° SSW 02:01:53 10° SSE visible
05 Sep - 04:04:47 10° SSW 04:09:07 11° SSW 04:12:59 10° S visible
05 Sep - 08:41:58 10° SSW 08:46:20 19° SSE 08:49:42 10° ESE daylight
05 Sep - 10:55:29 10° WSW 10:59:47 46° NW 11:03:33 10° NE daylight
05 Sep - 17:47:06 10° NNE 17:50:05 11° NNE 17:53:24 10° NE daylight
05 Sep - 19:55:19 10° NNW 20:07:53 41° NE 20:25:36 10° E visible
05 Sep - 22:08:53 10° NW 22:26:02 87° SW 22:46:34 10° SE visible
06 Sep - 00:27:45 10° W 00:45:45 41° SSW 01:02:18 10° SSE visible
06 Sep - 02:56:30 10° SW 03:06:48 17° SSW 03:15:19 10° SSE visible
06 Sep - 07:42:37 10° SSW 07:46:29 14° SSE 07:49:35 10° SE daylight
06 Sep - 09:55:40 10° SW 10:01:02 76° SE 10:05:00 10° ENE daylight
06 Sep - 18:56:55 10° NNW 19:06:50 28° NE 19:20:52 10° E visible
06 Sep - 21:08:58 10° NW 21:24:11 74° NE 21:44:46 10° ESE visible
